Mankato, MN

9:12 AM CST on November 21, 2019 (GMT -0600)
Mankato Regional

Weather History for KMKT - September, 2019

Change the Weather History Date:

Sunday, September 29, 2019

  Actual Average Record
Temperature  
Mean Temperature 56 °F -  
Max Temperature 64 °F 63 °F 84 °F (2000)
Min Temperature 50 °F 43 °F 32 °F (2003)
Degree Days  
Heating Degree Days 9    
Growing Degree Days 6 (Base 50)    
Moisture  
Dew Point 55 °F    
Average Humidity 96    
Maximum Humidity 100    
Minimum Humidity 80    
Precipitation  
Precipitation 0.10 in - - ()
Sea Level Pressure  
Sea Level Pressure 30.05 in    
Wind  
Wind Speed 14 mph ()    
Max Wind Speed 20 mph    
Max Gust Speed 26 mph    
Visibility 9.7 miles    
Events Rain    
Averages and records for this station are not official NWS values.
T = Trace of Precipitation, MM = Missing Value Source: Averaged Metar Reports

Daily Weather History Graph

Daily Weather History Graph

Search for Another Location

Airport or City:

Astronomy

Sep. 29, 2019 Rise Set
Actual Time 7:10 AM CDT 7:00 PM CDT
Civil Twilight 6:41 AM CDT 7:29 PM CDT
Nautical Twilight 6:08 AM CDT 8:02 PM CDT
Astronomical Twilight 5:34 AM CDT 8:36 PM CDT
Moon 8:02 AM CDT (9/29) 7:59 PM CDT (9/29)
Length of Visible Light 12h 47m
Length of Day
11h 49m
New Moon, 1% of the Moon is Illuminated
Sep 29
New Moon
Oct 5
First Quarter
Oct 13
Full
Oct 21
Last Quarter
Oct 27
New

Hourly Weather History & Observations

Time (CDT) Temp. Dew Point Humidity Pressure Visibility Wind Dir Wind Speed Gust Speed Precip Events Conditions
12:56 AM 55.0 °F 48.9 °F 80% 30.13 in 10.0 mi East 17.3 mph 24.2 mph 0.00 in Rain Light Rain
1:56 AM 55.0 °F 50.0 °F 83% 30.14 in 10.0 mi East 13.8 mph 21.9 mph 0.00 in Rain Light Rain
2:04 AM 53.6 °F 50.0 °F 88% 30.13 in 10.0 mi East 15.0 mph - 0.00 in Rain Light Rain
2:56 AM 53.1 °F 51.1 °F 93% 30.14 in 6.0 mi East 12.7 mph - 0.03 in Rain Heavy Rain
3:07 AM 53.6 °F 51.8 °F 94% 30.13 in 10.0 mi East 9.2 mph - 0.01 in Rain Light Rain
3:56 AM 52.0 °F 51.1 °F 97% 30.12 in 8.0 mi ESE 19.6 mph 24.2 mph 0.03 in Rain Rain
4:56 AM 50.0 °F 48.9 °F 96% 30.14 in 10.0 mi ESE 13.8 mph - 0.04 in Rain Light Rain
5:20 AM 50.0 °F 48.2 °F 94% 30.12 in 10.0 mi East 12.7 mph - 0.00 in   Overcast
5:56 AM 50.0 °F 48.9 °F 96% 30.14 in 10.0 mi East 10.4 mph - 0.00 in Rain Light Rain
6:56 AM 50.0 °F 50.0 °F 100% 30.13 in 10.0 mi East 13.8 mph - 0.00 in Rain Light Rain
7:56 AM 51.1 °F 51.1 °F 100% 30.13 in 10.0 mi East 12.7 mph - 0.00 in   Overcast
8:56 AM 51.1 °F 51.1 °F 100% 30.12 in 10.0 mi East 12.7 mph - N/A   Overcast
9:56 AM 53.1 °F 53.1 °F 100% 30.13 in 8.0 mi ESE 12.7 mph - 0.00 in Rain Light Rain
10:54 AM 53.6 °F 53.6 °F 100% 30.08 in 10.0 mi ESE 17.3 mph - 0.00 in   Overcast
10:56 AM 54.0 °F 54.0 °F 100% 30.09 in 10.0 mi ESE 18.4 mph - 0.00 in   Overcast
11:56 AM 55.9 °F 55.0 °F 97% 30.08 in 10.0 mi ESE 16.1 mph - N/A   Overcast
12:25 PM 57.2 °F 55.4 °F 94% 30.05 in 10.0 mi ESE 18.4 mph - N/A   Overcast
12:56 PM 57.9 °F 57.0 °F 97% 30.06 in 10.0 mi ESE 16.1 mph 26.5 mph N/A   Overcast
2:56 PM 60.1 °F 59.0 °F 96% 30.01 in 10.0 mi ESE 16.1 mph - N/A   Overcast
3:56 PM 60.1 °F 59.0 °F 96% 30.01 in 10.0 mi ESE 17.3 mph - N/A   Overcast
4:56 PM 61.0 °F 60.1 °F 97% 30.00 in 10.0 mi ESE 12.7 mph - N/A   Overcast
5:56 PM 60.1 °F 60.1 °F 100% 29.97 in 10.0 mi ESE 17.3 mph - N/A   Overcast
6:56 PM 60.1 °F 60.1 °F 100% 29.96 in 10.0 mi ESE 15.0 mph - N/A   Overcast
7:56 PM 60.1 °F 60.1 °F 100% 29.96 in 10.0 mi ESE 16.1 mph - N/A   Overcast
8:56 PM 60.1 °F 60.1 °F 100% 29.96 in 10.0 mi SE 17.3 mph - N/A   Overcast
9:56 PM 60.1 °F 60.1 °F 100% 29.94 in 10.0 mi SE 17.3 mph - N/A   Overcast
10:56 PM 61.0 °F 61.0 °F 100% 29.91 in 10.0 mi SE 19.6 mph - N/A   Overcast
11:54 PM 62.6 °F 62.6 °F 100% 29.88 in 10.0 mi SSE 17.3 mph 26.5 mph N/A   Overcast
11:56 PM 62.1 °F 62.1 °F 100% 29.89 in 10.0 mi SSE 19.6 mph 26.5 mph N/A   Overcast